Time,TemperatureF,DewpointF,PressureIn,WindDirection,WindDirectionDegrees,WindSpeedMPH,WindSpeedGustMPH,Humidity,HourlyPrecipIn,Conditions,Clouds,dailyrainin,SoftwareType,DateUTC
2013-02-26 00:00:00,42.6,37.5,30.11,North,351,0.0,1.0,82,0.00,,---,0.00,VWS V14.01,2013-02-26 08:00:00,
2013-02-26 00:05:00,42.5,37.4,30.11,North,351,0.0,0.0,82,0.00,,---,0.00,VWS V14.01,2013-02-26 08:05:00,
2013-02-26 00:10:00,42.0,36.9,30.11,ENE,63,0.0,1.0,82,0.00,,---,0.00,VWS V14.01,2013-02-26 08:10:00,
2013-02-26 00:15:00,41.7,36.9,30.11,North,4,1.0,1.0,83,0.00,,---,0.00,VWS V14.01,2013-02-26 08:15:00,
2013-02-26 00:20:00,42.1,37.6,30.11,North,4,0.0,1.0,84,0.00,,---,0.00,VWS V14.01,2013-02-26 08:20:00,
2013-02-26 00:25:00,42.3,37.5,30.10,North,4,0.0,1.0,83,0.00,,---,0.00,VWS V14.01,2013-02-26 08:25:00,
2013-02-26 00:30:00,41.9,37.1,30.10,North,4,0.0,1.0,83,0.00,,---,0.00,VWS V14.01,2013-02-26 08:30:00,
2013-02-26 00:35:00,41.9,37.1,30.10,North,4,0.0,1.0,83,0.00,,---,0.00,VWS V14.01,2013-02-26 08:35:00,
2013-02-26 00:40:00,41.7,36.9,30.10,North,4,0.0,1.0,83,0.00,,---,0.00,VWS V14.01,2013-02-26 08:40:00,
2013-02-26 00:45:00,41.5,37.0,30.10,North,4,0.0,1.0,84,0.00,,---,0.00,VWS V14.01,2013-02-26 08:45:00,
2013-02-26 00:50:00,41.7,36.9,30.10,North,4,0.0,1.0,83,0.00,,---,0.00,VWS V14.01,2013-02-26 08:50:00,
2013-02-26 00:55:00,41.2,36.1,30.09,North,4,1.0,1.0,82,0.00,,---,0.00,VWS V14.01,2013-02-26 08:55:00,
2013-02-26 01:00:00,41.2,36.4,30.09,NNW,337,0.0,2.0,83,0.00,,---,0.00,VWS V14.01,2013-02-26 09:00:00,
2013-02-26 01:05:00,41.0,36.2,30.10,NNW,338,0.0,1.0,83,0.00,,---,0.00,VWS V14.01,2013-02-26 09:05:00,
2013-02-26 01:10:00,40.6,35.8,30.09,NNW,337,0.0,1.0,83,0.00,,---,0.00,VWS V14.01,2013-02-26 09:10:00,
2013-02-26 01:15:00,40.2,35.5,30.09,NNW,337,0.0,1.0,83,0.00,,---,0.00,VWS V14.01,2013-02-26 09:15:00,
2013-02-26 01:20:00,40.1,36.0,30.09,NNW,338,0.0,1.0,85,0.00,,---,0.00,VWS V14.01,2013-02-26 09:20:00,
2013-02-26 01:25:00,40.0,36.2,30.08,NNW,338,0.0,1.0,86,0.00,,---,0.00,VWS V14.01,2013-02-26 09:25:00,
2013-02-26 01:30:00,40.1,36.5,30.08,NNW,337,0.0,1.0,87,0.00,,---,0.00,VWS V14.01,2013-02-26 09:30:00,
2013-02-26 01:35:00,40.2,36.3,30.08,NNW,337,0.0,1.0,86,0.00,,---,0.00,VWS V14.01,2013-02-26 09:35:00,
2013-02-26 01:40:00,39.9,35.8,30.08,NNW,337,0.0,1.0,85,0.00,,---,0.00,VWS V14.01,2013-02-26 09:40:00,
2013-02-26 01:45:00,39.7,35.9,30.07,NNW,337,0.0,1.0,86,0.00,,---,0.00,VWS V14.01,2013-02-26 09:45:00,
2013-02-26 01:50:00,40.0,36.5,30.07,NNE,12,1.0,1.0,87,0.00,,---,0.00,VWS V14.01,2013-02-26 09:50:00,
2013-02-26 01:55:00,40.3,36.5,30.07,ENE,64,0.0,1.0,86,0.00,,---,0.00,VWS V14.01,2013-02-26 09:55:00,
2013-02-26 02:00:00,40.5,36.0,30.07,ENE,78,0.0,1.0,84,0.00,,---,0.00,VWS V14.01,2013-02-26 10:00:00,
2013-02-26 02:05:00,40.3,35.6,30.07,ENE,78,0.0,1.0,83,0.00,,---,0.00,VWS V14.01,2013-02-26 10:05:00,
2013-02-26 02:10:00,40.0,35.6,30.07,ENE,78,0.0,1.0,84,0.00,,---,0.00,VWS V14.01,2013-02-26 10:10:00,
2013-02-26 02:15:00,39.6,35.2,30.06,ENE,78,0.0,1.0,84,0.00,,---,0.00,VWS V14.01,2013-02-26 10:15:00,
2013-02-26 02:20:00,39.3,35.2,30.06,ENE,78,0.0,1.0,85,0.00,,---,0.00,VWS V14.01,2013-02-26 10:20:00,
2013-02-26 02:25:00,39.1,35.0,30.06,ENE,78,0.0,1.0,85,0.00,,---,0.00,VWS V14.01,2013-02-26 10:25:00,
2013-02-26 02:30:00,38.6,34.5,30.07,ENE,78,0.0,1.0,85,0.00,,---,0.00,VWS V14.01,2013-02-26 10:30:00,
2013-02-26 02:35:00,38.6,34.8,30.06,ENE,71,0.0,1.0,86,0.00,,---,0.00,VWS V14.01,2013-02-26 10:35:00,
2013-02-26 02:40:00,38.8,35.3,30.06,North,359,1.0,2.0,87,0.00,,---,0.00,VWS V14.01,2013-02-26 10:40:00,
2013-02-26 02:45:00,39.1,35.0,30.06,North,358,0.0,2.0,85,0.00,,---,0.00,VWS V14.01,2013-02-26 10:45:00,
2013-02-26 02:49:00,39.2,35.1,30.06,North,359,0.0,2.0,85,0.00,,---,0.00,VWS V14.01,2013-02-26 10:49:00,
2013-02-26 02:54:00,38.8,34.7,30.05,North,358,0.0,2.0,85,0.00,,---,0.00,VWS V14.01,2013-02-26 10:54:00,
2013-02-26 02:59:00,38.5,34.7,30.05,North,358,0.0,2.0,86,0.00,,---,0.00,VWS V14.01,2013-02-26 10:59:00,
2013-02-26 03:04:00,38.2,34.4,30.05,North,358,0.0,1.0,86,0.00,,---,0.00,VWS V14.01,2013-02-26 11:04:00,
2013-02-26 03:09:00,38.2,34.7,30.05,NNE,20,1.0,2.0,87,0.00,,---,0.00,VWS V14.01,2013-02-26 11:09:00,
2013-02-26 03:14:00,38.3,34.8,30.05,North,357,0.0,2.0,87,0.00,,---,0.00,VWS V14.01,2013-02-26 11:14:00,
2013-02-26 03:19:00,38.3,34.8,30.05,North,357,0.0,2.0,87,0.00,,---,0.00,VWS V14.01,2013-02-26 11:19:00,
2013-02-26 03:24:00,38.1,34.6,30.05,North,357,0.0,2.0,87,0.00,,---,0.00,VWS V14.01,2013-02-26 11:24:00,
2013-02-26 03:29:00,38.0,34.5,30.05,North,357,0.0,2.0,87,0.00,,---,0.00,VWS V14.01,2013-02-26 11:29:00,
2013-02-26 03:34:00,37.6,33.8,30.05,North,357,0.0,2.0,86,0.00,,---,0.00,VWS V14.01,2013-02-26 11:34:00,
2013-02-26 03:39:00,37.4,33.9,30.05,North,357,0.0,2.0,87,0.00,,---,0.00,VWS V14.01,2013-02-26 11:39:00,
2013-02-26 03:44:00,37.3,33.8,30.05,North,357,0.0,2.0,87,0.00,,---,0.00,VWS V14.01,2013-02-26 11:44:00,
2013-02-26 03:49:00,37.0,33.5,30.05,North,357,0.0,2.0,87,0.00,,---,0.00,VWS V14.01,2013-02-26 11:49:00,
2013-02-26 03:54:00,36.9,33.7,30.04,North,357,0.0,2.0,88,0.00,,---,0.00,VWS V14.01,2013-02-26 11:54:00,
2013-02-26 03:59:00,36.8,33.6,30.04,North,356,0.0,2.0,88,0.00,,---,0.00,VWS V14.01,2013-02-26 11:59:00,
2013-02-26 04:04:00,36.7,33.5,30.05,North,356,1.0,1.0,88,0.00,,---,0.00,VWS V14.01,2013-02-26 12:04:00,
2013-02-26 04:09:00,36.9,34.0,30.05,North,357,1.0,1.0,89,0.00,,---,0.00,VWS V14.01,2013-02-26 12:09:00,
2013-02-26 04:14:00,37.2,34.3,30.04,North,359,0.0,1.0,89,0.00,,---,0.00,VWS V14.01,2013-02-26 12:14:00,
2013-02-26 04:19:00,37.1,33.9,30.04,SSE,155,0.0,1.0,88,0.00,,---,0.00,VWS V14.01,2013-02-26 12:19:00,
2013-02-26 04:24:00,36.7,33.8,30.04,SSE,155,0.0,1.0,89,0.00,,---,0.00,VWS V14.01,2013-02-26 12:24:00,
2013-02-26 04:29:00,36.7,33.8,30.05,SSE,155,0.0,1.0,89,0.00,,---,0.00,VWS V14.01,2013-02-26 12:29:00,
2013-02-26 04:34:00,36.7,33.8,30.05,SSE,155,0.0,1.0,89,0.00,,---,0.00,VWS V14.01,2013-02-26 12:34:00,
2013-02-26 04:39:00,36.7,34.0,30.05,NW,304,1.0,1.0,90,0.00,,---,0.00,VWS V14.01,2013-02-26 12:39:00,
2013-02-26 04:44:00,36.9,34.2,30.05,NW,304,0.0,1.0,90,0.00,,---,0.00,VWS V14.01,2013-02-26 12:44:00,
2013-02-26 04:49:00,37.1,34.2,30.04,WNW,303,0.0,1.0,89,0.00,,---,0.00,VWS V14.01,2013-02-26 12:49:00,
2013-02-26 04:54:00,36.9,33.7,30.04,WNW,303,0.0,1.0,88,0.00,,---,0.00,VWS V14.01,2013-02-26 12:54:00,
2013-02-26 04:59:00,36.8,33.9,30.04,NW,304,0.0,1.0,89,0.00,,---,0.00,VWS V14.01,2013-02-26 12:59:00,
2013-02-26 05:04:00,36.8,33.9,30.04,NW,304,0.0,0.0,89,0.00,,---,0.00,VWS V14.01,2013-02-26 13:04:00,
2013-02-26 05:09:00,36.8,33.9,30.04,NW,304,0.0,0.0,89,0.00,,---,0.00,VWS V14.01,2013-02-26 13:09:00,
2013-02-26 05:14:00,37.0,34.1,30.04,NW,304,0.0,0.0,89,0.00,,---,0.00,VWS V14.01,2013-02-26 13:14:00,
2013-02-26 05:19:00,37.2,34.3,30.05,North,354,1.0,1.0,89,0.00,,---,0.00,VWS V14.01,2013-02-26 13:19:00,
2013-02-26 05:24:00,37.3,34.4,30.05,North,354,0.0,1.0,89,0.00,,---,0.00,VWS V14.01,2013-02-26 13:24:00,
2013-02-26 05:29:00,37.4,34.2,30.05,North,354,0.0,1.0,88,0.00,,---,0.00,VWS V14.01,2013-02-26 13:29:00,
2013-02-26 05:34:00,37.2,34.0,30.05,North,354,0.0,1.0,88,0.00,,---,0.00,VWS V14.01,2013-02-26 13:34:00,
2013-02-26 05:39:00,37.0,33.8,30.05,North,354,0.0,1.0,88,0.00,,---,0.00,VWS V14.01,2013-02-26 13:39:00,
2013-02-26 05:44:00,36.9,34.0,30.05,East,92,1.0,1.0,89,0.00,,---,0.00,VWS V14.01,2013-02-26 13:44:00,
2013-02-26 05:49:00,36.6,33.4,30.05,East,95,0.0,1.0,88,0.00,,---,0.00,VWS V14.01,2013-02-26 13:49:00,
2013-02-26 05:54:00,36.3,33.1,30.05,NNE,32,0.0,1.0,88,0.00,,---,0.00,VWS V14.01,2013-02-26 13:54:00,
2013-02-26 05:59:00,36.6,33.7,30.05,East,100,1.0,2.0,89,0.00,,---,0.00,VWS V14.01,2013-02-26 13:59:00,
2013-02-26 06:04:00,36.7,33.8,30.05,East,101,0.0,1.0,89,0.00,,---,0.00,VWS V14.01,2013-02-26 14:04:00,
2013-02-26 06:09:00,36.4,33.5,30.05,East,100,0.0,1.0,89,0.00,,---,0.00,VWS V14.01,2013-02-26 14:09:00,
2013-02-26 06:14:00,36.3,33.4,30.05,ENE,74,0.0,1.0,89,0.00,,---,0.00,VWS V14.01,2013-02-26 14:14:00,
2013-02-26 06:19:00,36.8,34.2,30.05,ENE,72,1.0,1.0,90,0.00,,---,0.00,VWS V14.01,2013-02-26 14:19:00,
2013-02-26 06:24:00,36.9,34.0,30.05,ENE,72,0.0,2.0,89,0.00,,---,0.00,VWS V14.01,2013-02-26 14:24:00,
2013-02-26 06:29:00,37.1,34.2,30.05,ENE,72,0.0,2.0,89,0.00,,---,0.00,VWS V14.01,2013-02-26 14:29:00,
2013-02-26 06:34:00,37.1,34.2,30.05,ENE,72,1.0,2.0,89,0.00,,---,0.00,VWS V14.01,2013-02-26 14:34:00,
2013-02-26 06:39:00,37.5,34.3,30.05,NE,46,0.0,2.0,88,0.00,,---,0.00,VWS V14.01,2013-02-26 14:39:00,
2013-02-26 06:44:00,37.6,34.4,30.05,NE,47,0.0,2.0,88,0.00,,---,0.00,VWS V14.01,2013-02-26 14:44:00,
2013-02-26 06:49:00,38.1,34.9,30.05,ESE,117,0.0,2.0,88,0.00,,---,0.00,VWS V14.01,2013-02-26 14:49:00,
2013-02-26 06:54:00,38.3,34.8,30.05,ESE,117,1.0,2.0,87,0.00,,---,0.00,VWS V14.01,2013-02-26 14:54:00,
2013-02-26 06:59:00,38.4,34.6,30.05,ESE,120,0.0,2.0,86,0.00,,---,0.00,VWS V14.01,2013-02-26 14:59:00,
2013-02-26 07:04:00,38.6,34.8,30.05,ESE,121,0.0,1.0,86,0.00,,---,0.00,VWS V14.01,2013-02-26 15:04:00,
2013-02-26 07:09:00,39.1,35.0,30.05,SE,135,0.0,1.0,85,0.00,,---,0.00,VWS V14.01,2013-02-26 15:09:00,
2013-02-26 07:14:00,39.4,35.3,30.05,SE,138,0.0,1.0,85,0.00,,---,0.00,VWS V14.01,2013-02-26 15:14:00,
2013-02-26 07:19:00,39.7,35.6,30.05,SE,139,0.0,1.0,85,0.00,,---,0.00,VWS V14.01,2013-02-26 15:19:00,
2013-02-26 07:24:00,40.1,35.7,30.05,SE,139,0.0,1.0,84,0.00,,---,0.00,VWS V14.01,2013-02-26 15:24:00,
2013-02-26 07:29:00,41.2,36.4,30.06,SE,140,0.0,2.0,83,0.00,,---,0.00,VWS V14.01,2013-02-26 15:29:00,
2013-02-26 07:34:00,41.9,36.8,30.06,SSE,158,0.0,2.0,82,0.00,,---,0.00,VWS V14.01,2013-02-26 15:34:00,
2013-02-26 07:39:00,42.5,36.8,30.06,SE,125,0.0,2.0,80,0.00,,---,0.00,VWS V14.01,2013-02-26 15:39:00,
2013-02-26 07:44:00,43.2,37.1,30.06,ESE,115,0.0,2.0,79,0.00,,---,0.00,VWS V14.01,2013-02-26 15:44:00,
2013-02-26 07:49:00,44.1,37.7,30.06,ESE,120,0.0,2.0,78,0.00,,---,0.00,VWS V14.01,2013-02-26 15:49:00,
2013-02-26 07:54:00,44.7,38.3,30.06,ESE,114,2.0,2.0,78,0.00,,---,0.00,VWS V14.01,2013-02-26 15:54:00,
2013-02-26 07:59:00,45.6,38.2,30.06,SSE,168,0.0,2.0,75,0.00,,---,0.00,VWS V14.01,2013-02-26 15:59:00,
2013-02-26 08:04:00,46.4,38.6,30.06,SSE,158,0.0,0.0,74,0.00,,---,0.00,VWS V14.01,2013-02-26 16:04:00,
2013-02-26 08:09:00,47.5,39.3,30.07,SSE,158,0.0,0.0,73,0.00,,---,0.00,VWS V14.01,2013-02-26 16:09:00,
2013-02-26 08:14:00,48.6,38.9,30.07,SE,135,1.0,1.0,69,0.00,,---,0.00,VWS V14.01,2013-02-26 16:14:00,
2013-02-26 08:19:00,49.4,39.7,30.07,SE,145,0.0,1.0,69,0.00,,---,0.00,VWS V14.01,2013-02-26 16:19:00,
2013-02-26 08:24:00,50.1,39.6,30.07,SE,145,1.0,2.0,67,0.00,,---,0.00,VWS V14.01,2013-02-26 16:24:00,
2013-02-26 08:29:00,50.8,40.2,30.07,SW,221,1.0,2.0,67,0.00,,---,0.00,VWS V14.01,2013-02-26 16:29:00,
2013-02-26 08:34:00,52.0,41.0,30.07,SSE,154,0.0,2.0,66,0.00,,---,0.00,VWS V14.01,2013-02-26 16:34:00,
2013-02-26 08:39:00,52.6,42.3,30.08,ESE,123,1.0,2.0,68,0.00,,---,0.00,VWS V14.01,2013-02-26 16:39:00,
2013-02-26 08:44:00,53.2,43.7,30.08,SSE,162,0.0,2.0,70,0.00,,---,0.00,VWS V14.01,2013-02-26 16:44:00,
2013-02-26 08:49:00,53.7,43.8,30.08,SE,132,1.0,3.0,69,0.00,,---,0.00,VWS V14.01,2013-02-26 16:49:00,
2013-02-26 08:54:00,54.7,45.5,30.08,ENE,63,1.0,3.0,71,0.00,,---,0.00,VWS V14.01,2013-02-26 16:54:00,
2013-02-26 08:59:00,54.9,44.5,30.08,SSE,158,1.0,3.0,68,0.00,,---,0.00,VWS V14.01,2013-02-26 16:59:00,
2013-02-26 09:04:00,55.0,45.0,30.08,East,94,2.0,3.0,69,0.00,,---,0.00,VWS V14.01,2013-02-26 17:04:00,
2013-02-26 09:09:00,55.8,45.4,30.08,ESE,117,3.0,4.0,68,0.00,,---,0.00,VWS V14.01,2013-02-26 17:09:00,
2013-02-26 09:14:00,57.0,45.8,30.08,SSW,199,1.0,5.0,66,0.00,,---,0.00,VWS V14.01,2013-02-26 17:14:00,
2013-02-26 09:19:00,57.8,45.7,30.08,SE,131,2.0,5.0,64,0.00,,---,0.00,VWS V14.01,2013-02-26 17:19:00,
2013-02-26 09:24:00,58.4,45.9,30.07,East,100,1.0,5.0,63,0.00,,---,0.00,VWS V14.01,2013-02-26 17:24:00,
2013-02-26 09:29:00,59.1,46.1,30.07,ESE,115,3.0,6.0,62,0.00,,---,0.00,VWS V14.01,2013-02-26 17:29:00,
2013-02-26 09:34:00,59.7,46.2,30.07,SE,138,3.0,6.0,61,0.00,,---,0.00,VWS V14.01,2013-02-26 17:34:00,
2013-02-26 09:39:00,59.7,45.8,30.07,SSE,149,2.0,6.0,60,0.00,,---,0.00,VWS V14.01,2013-02-26 17:39:00,
2013-02-26 09:44:00,60.1,45.7,30.07,SE,124,2.0,7.0,59,0.00,,---,0.00,VWS V14.01,2013-02-26 17:44:00,
2013-02-26 09:49:00,60.4,45.1,30.07,East,92,1.0,7.0,57,0.00,,---,0.00,VWS V14.01,2013-02-26 17:49:00,
2013-02-26 09:54:00,60.4,44.7,30.07,East,94,1.0,7.0,56,0.00,,---,0.00,VWS V14.01,2013-02-26 17:54:00,
2013-02-26 09:59:00,61.0,45.2,30.07,SE,146,3.0,7.0,56,0.00,,---,0.00,VWS V14.01,2013-02-26 17:59:00,
2013-02-26 10:04:00,61.2,44.4,30.07,South,185,6.0,6.0,54,0.00,,---,0.00,VWS V14.01,2013-02-26 18:04:00,
2013-02-26 10:09:00,62.1,44.8,30.07,SE,138,4.0,6.0,53,0.00,,---,0.00,VWS V14.01,2013-02-26 18:09:00,
2013-02-26 10:14:00,61.9,44.1,30.07,South,174,3.0,7.0,52,0.00,,---,0.00,VWS V14.01,2013-02-26 18:14:00,
2013-02-26 10:19:00,62.3,44.0,30.07,SE,146,2.0,7.0,51,0.00,,---,0.00,VWS V14.01,2013-02-26 18:19:00,
2013-02-26 10:24:00,62.6,43.2,30.06,SSE,154,1.0,7.0,49,0.00,,---,0.00,VWS V14.01,2013-02-26 18:24:00,
2013-02-26 10:29:00,62.4,43.5,30.06,SE,142,0.0,7.0,50,0.00,,---,0.00,VWS V14.01,2013-02-26 18:29:00,
2013-02-26 10:34:00,62.8,43.4,30.06,SE,131,1.0,7.0,49,0.00,,---,0.00,VWS V14.01,2013-02-26 18:34:00,
2013-02-26 10:39:00,63.1,43.1,30.06,East,84,1.0,7.0,48,0.00,,---,0.00,VWS V14.01,2013-02-26 18:39:00,
2013-02-26 10:44:00,64.5,43.8,30.06,East,84,4.0,7.0,47,0.00,,---,0.00,VWS V14.01,2013-02-26 18:44:00,
2013-02-26 10:49:00,63.8,42.1,30.06,East,98,3.0,7.0,45,0.00,,---,0.00,VWS V14.01,2013-02-26 18:49:00,
2013-02-26 10:54:00,63.5,43.5,30.06,SE,124,2.0,7.0,48,0.00,,---,0.00,VWS V14.01,2013-02-26 18:54:00,
2013-02-26 10:59:00,64.9,42.5,30.06,SSE,162,1.0,7.0,44,0.00,,---,0.00,VWS V14.01,2013-02-26 18:59:00,
2013-02-26 11:04:00,66.2,43.1,30.05,SSE,152,2.0,6.0,43,0.00,,---,0.00,VWS V14.01,2013-02-26 19:04:00,
2013-02-26 11:09:00,67.0,42.5,30.05,NE,34,3.0,6.0,41,0.00,,---,0.00,VWS V14.01,2013-02-26 19:09:00,
2013-02-26 11:14:00,66.2,43.1,30.05,ENE,65,1.0,6.0,43,0.00,,---,0.00,VWS V14.01,2013-02-26 19:14:00,
2013-02-26 11:19:00,66.0,47.4,30.05,WSW,248,4.0,8.0,51,0.00,,---,0.00,VWS V14.01,2013-02-26 19:19:00,
2013-02-26 11:24:00,65.0,47.5,30.05,NW,307,4.0,8.0,53,0.00,,---,0.00,VWS V14.01,2013-02-26 19:24:00,
2013-02-26 11:29:00,64.7,47.7,30.05,West,275,4.0,8.0,54,0.00,,---,0.00,VWS V14.01,2013-02-26 19:29:00,
2013-02-26 11:34:00,64.1,47.1,30.04,West,266,6.0,8.0,54,0.00,,---,0.00,VWS V14.01,2013-02-26 19:34:00,
2013-02-26 11:39:00,63.5,47.1,30.04,West,281,3.0,9.0,55,0.00,,---,0.00,VWS V14.01,2013-02-26 19:39:00,
2013-02-26 11:44:00,63.2,47.3,30.04,WNW,282,2.0,9.0,56,0.00,,---,0.00,VWS V14.01,2013-02-26 19:44:00,
2013-02-26 11:49:00,63.5,47.5,30.04,West,267,3.0,9.0,56,0.00,,---,0.00,VWS V14.01,2013-02-26 19:49:00,
2013-02-26 11:54:00,63.5,47.5,30.04,WNW,283,4.0,9.0,56,0.00,,---,0.00,VWS V14.01,2013-02-26 19:54:00,
2013-02-26 11:59:00,63.7,47.7,30.04,WSW,257,7.0,10.0,56,0.00,,---,0.00,VWS V14.01,2013-02-26 19:59:00,
2013-02-26 12:04:00,63.6,47.2,30.03,WNW,288,6.0,8.0,55,0.00,,---,0.00,VWS V14.01,2013-02-26 20:04:00,
2013-02-26 12:09:00,64.0,47.5,30.03,WNW,289,6.0,8.0,55,0.00,,---,0.00,VWS V14.01,2013-02-26 20:09:00,
2013-02-26 12:14:00,64.0,47.5,30.03,WNW,282,2.0,8.0,55,0.00,,---,0.00,VWS V14.01,2013-02-26 20:14:00,
2013-02-26 12:19:00,64.1,47.1,30.03,WNW,301,6.0,8.0,54,0.00,,---,0.00,VWS V14.01,2013-02-26 20:19:00,
2013-02-26 12:24:00,64.1,47.6,30.02,NW,314,6.0,8.0,55,0.00,,---,0.00,VWS V14.01,2013-02-26 20:24:00,
2013-02-26 12:29:00,63.9,47.4,30.03,WNW,303,2.0,8.0,55,0.00,,---,0.00,VWS V14.01,2013-02-26 20:29:00,
2013-02-26 12:34:00,64.2,47.2,30.02,NW,305,5.0,9.0,54,0.00,,---,0.00,VWS V14.01,2013-02-26 20:34:00,
2013-02-26 12:39:00,64.3,47.3,30.02,WNW,292,4.0,9.0,54,0.00,,---,0.00,VWS V14.01,2013-02-26 20:39:00,
2013-02-26 12:44:00,64.3,47.3,30.02,West,262,4.0,9.0,54,0.00,,---,0.00,VWS V14.01,2013-02-26 20:44:00,
2013-02-26 12:49:00,64.5,47.0,30.01,West,280,5.0,9.0,53,0.00,,---,0.00,VWS V14.01,2013-02-26 20:49:00,
2013-02-26 12:54:00,65.1,47.6,30.01,West,259,3.0,9.0,53,0.00,,---,0.00,VWS V14.01,2013-02-26 20:54:00,
2013-02-26 12:59:00,65.4,47.3,30.01,NW,314,8.0,10.0,52,0.00,,---,0.00,VWS V14.01,2013-02-26 20:59:00,
2013-02-26 13:04:00,65.3,46.7,30.01,NW,323,3.0,10.0,51,0.00,,---,0.00,VWS V14.01,2013-02-26 21:04:00,
2013-02-26 13:09:00,65.1,46.5,30.01,West,260,4.0,10.0,51,0.00,,---,0.00,VWS V14.01,2013-02-26 21:09:00,
2013-02-26 13:14:00,65.6,45.4,30.01,West,276,5.0,10.0,48,0.00,,---,0.00,VWS V14.01,2013-02-26 21:14:00,
2013-02-26 13:19:00,65.2,45.0,30.01,WNW,285,8.0,10.0,48,0.00,,---,0.00,VWS V14.01,2013-02-26 21:19:00,
2013-02-26 13:24:00,64.7,44.6,30.01,West,271,5.0,11.0,48,0.00,,---,0.00,VWS V14.01,2013-02-26 21:24:00,
2013-02-26 13:29:00,64.6,44.5,30.01,WNW,288,6.0,11.0,48,0.00,,---,0.00,VWS V14.01,2013-02-26 21:29:00,
2013-02-26 13:34:00,64.4,45.4,30.01,West,267,8.0,11.0,50,0.00,,---,0.00,VWS V14.01,2013-02-26 21:34:00,
2013-02-26 13:39:00,64.4,44.3,30.01,WNW,286,5.0,12.0,48,0.00,,---,0.00,VWS V14.01,2013-02-26 21:39:00,
2013-02-26 13:44:00,64.1,44.6,30.01,WSW,253,3.0,12.0,49,0.00,,---,0.00,VWS V14.01,2013-02-26 21:44:00,
2013-02-26 13:49:00,64.6,44.5,30.01,SW,218,7.0,12.0,48,0.00,,---,0.00,VWS V14.01,2013-02-26 21:49:00,
2013-02-26 13:54:00,64.6,44.5,30.01,WNW,300,9.0,12.0,48,0.00,,---,0.00,VWS V14.01,2013-02-26 21:54:00,
2013-02-26 13:59:00,64.0,45.0,30.01,WNW,283,6.0,12.0,50,0.00,,---,0.00,VWS V14.01,2013-02-26 21:59:00,
2013-02-26 14:04:00,63.8,45.3,30.01,West,273,9.0,11.0,51,0.00,,---,0.00,VWS V14.01,2013-02-26 22:04:00,
2013-02-26 14:09:00,63.5,45.6,30.01,West,266,4.0,11.0,52,0.00,,---,0.00,VWS V14.01,2013-02-26 22:09:00,
2013-02-26 14:14:00,63.5,45.6,30.01,NW,304,5.0,11.0,52,0.00,,---,0.00,VWS V14.01,2013-02-26 22:14:00,
2013-02-26 14:19:00,63.1,45.7,30.01,NW,304,6.0,11.0,53,0.00,,---,0.00,VWS V14.01,2013-02-26 22:19:00,
2013-02-26 14:24:00,63.3,45.4,30.01,WNW,289,6.0,11.0,52,0.00,,---,0.00,VWS V14.01,2013-02-26 22:24:00,
2013-02-26 14:29:00,63.3,45.4,30.01,NW,308,4.0,11.0,52,0.00,,---,0.00,VWS V14.01,2013-02-26 22:29:00,
2013-02-26 14:34:00,63.7,45.8,30.01,WSW,240,4.0,11.0,52,0.00,,---,0.00,VWS V14.01,2013-02-26 22:34:00,
2013-02-26 14:39:00,64.0,46.0,30.01,NW,311,6.0,11.0,52,0.00,,---,0.00,VWS V14.01,2013-02-26 22:39:00,
2013-02-26 14:44:00,64.2,46.2,30.01,WNW,283,4.0,11.0,52,0.00,,---,0.00,VWS V14.01,2013-02-26 22:44:00,
2013-02-26 14:49:00,64.2,46.2,30.02,West,259,3.0,11.0,52,0.00,,---,0.00,VWS V14.01,2013-02-26 22:49:00,
2013-02-26 14:54:00,64.1,46.1,30.01,West,280,3.0,11.0,52,0.00,,---,0.00,VWS V14.01,2013-02-26 22:54:00,
2013-02-26 14:59:00,64.2,46.2,30.01,WNW,283,3.0,11.0,52,0.00,,---,0.00,VWS V14.01,2013-02-26 22:59:00,
2013-02-26 15:04:00,64.4,45.9,30.01,WSW,250,3.0,7.0,51,0.00,,---,0.00,VWS V14.01,2013-02-26 23:04:00,
2013-02-26 15:09:00,64.9,45.8,30.01,WSW,253,4.0,7.0,50,0.00,,---,0.00,VWS V14.01,2013-02-26 23:09:00,
2013-02-26 15:14:00,65.1,46.0,30.01,WSW,246,4.0,7.0,50,0.00,,---,0.00,VWS V14.01,2013-02-26 23:14:00,
2013-02-26 15:19:00,65.5,46.4,30.01,WSW,240,2.0,7.0,50,0.00,,---,0.00,VWS V14.01,2013-02-26 23:19:00,
2013-02-26 15:24:00,66.1,46.4,30.01,NW,311,2.0,7.0,49,0.00,,---,0.00,VWS V14.01,2013-02-26 23:24:00,
2013-02-26 15:29:00,66.7,46.4,30.01,North,353,2.0,7.0,48,0.00,,---,0.00,VWS V14.01,2013-02-26 23:29:00,
2013-02-26 15:34:00,67.6,46.7,30.01,NNW,337,3.0,7.0,47,0.00,,---,0.00,VWS V14.01,2013-02-26 23:34:00,
2013-02-26 15:39:00,68.0,46.5,30.02,SW,233,2.0,7.0,46,0.00,,---,0.00,VWS V14.01,2013-02-26 23:39:00,
2013-02-26 15:44:00,67.0,46.7,30.01,NW,314,5.0,7.0,48,0.00,,---,0.00,VWS V14.01,2013-02-26 23:44:00,
2013-02-26 15:49:00,66.2,47.0,30.01,NW,307,4.0,8.0,50,0.00,,---,0.00,VWS V14.01,2013-02-26 23:49:00,
2013-02-26 15:54:00,65.7,47.1,30.01,West,260,6.0,8.0,51,0.00,,---,0.00,VWS V14.01,2013-02-26 23:54:00,
2013-02-26 15:58:00,65.4,45.8,30.01,WNW,288,7.0,8.0,49,0.00,,---,0.00,VWS V14.01,2013-02-26 23:58:00,
2013-02-26 16:03:00,65.1,46.0,30.01,West,269,4.0,6.0,50,0.00,,---,0.00,VWS V14.01,2013-02-27 00:03:00,
2013-02-26 16:08:00,64.8,46.3,30.01,WNW,284,5.0,8.0,51,0.00,,---,0.00,VWS V14.01,2013-02-27 00:08:00,
2013-02-26 16:13:00,64.7,46.7,30.01,West,280,3.0,8.0,52,0.00,,---,0.00,VWS V14.01,2013-02-27 00:13:00,
2013-02-26 16:18:00,64.9,46.9,30.01,West,275,5.0,8.0,52,0.00,,---,0.00,VWS V14.01,2013-02-27 00:18:00,
2013-02-26 16:23:00,64.6,48.1,30.01,NW,309,2.0,8.0,55,0.00,,---,0.00,VWS V14.01,2013-02-27 00:23:00,
2013-02-26 16:28:00,64.3,48.3,30.01,West,278,7.0,8.0,56,0.00,,---,0.00,VWS V14.01,2013-02-27 00:28:00,
2013-02-26 16:33:00,63.7,48.7,30.01,WNW,294,4.0,8.0,58,0.00,,---,0.00,VWS V14.01,2013-02-27 00:33:00,
2013-02-26 16:38:00,64.3,48.8,30.01,WNW,300,4.0,8.0,57,0.00,,---,0.00,VWS V14.01,2013-02-27 00:38:00,
2013-02-26 16:43:00,63.8,48.8,30.01,WNW,291,4.0,8.0,58,0.00,,---,0.00,VWS V14.01,2013-02-27 00:43:00,
2013-02-26 16:48:00,63.2,48.7,30.01,NW,325,3.0,8.0,59,0.00,,---,0.00,VWS V14.01,2013-02-27 00:48:00,
2013-02-26 16:53:00,63.4,47.9,30.01,NW,325,3.0,8.0,57,0.00,,---,0.00,VWS V14.01,2013-02-27 00:53:00,
2013-02-26 16:58:00,63.6,48.1,30.01,NNW,340,2.0,8.0,57,0.00,,---,0.00,VWS V14.01,2013-02-27 00:58:00,
2013-02-26 17:03:00,63.8,47.8,30.01,NNW,335,3.0,4.0,56,0.00,,---,0.00,VWS V14.01,2013-02-27 01:03:00,
2013-02-26 17:08:00,63.9,46.0,30.01,NNW,339,4.0,6.0,52,0.00,,---,0.00,VWS V14.01,2013-02-27 01:08:00,
2013-02-26 17:13:00,64.0,46.0,30.01,NE,43,2.0,6.0,52,0.00,,---,0.00,VWS V14.01,2013-02-27 01:13:00,
2013-02-26 17:18:00,63.9,47.0,30.01,NNW,330,2.0,6.0,54,0.00,,---,0.00,VWS V14.01,2013-02-27 01:18:00,
2013-02-26 17:23:00,63.2,45.3,30.01,WNW,300,2.0,6.0,52,0.00,,---,0.00,VWS V14.01,2013-02-27 01:23:00,
2013-02-26 17:28:00,62.4,47.5,30.02,SSW,198,0.0,6.0,58,0.00,,---,0.00,VWS V14.01,2013-02-27 01:28:00,
2013-02-26 17:33:00,61.4,47.8,30.02,WSW,245,2.0,6.0,61,0.00,,---,0.00,VWS V14.01,2013-02-27 01:33:00,
2013-02-26 17:38:00,60.4,46.9,30.02,WSW,245,0.0,6.0,61,0.00,,---,0.00,VWS V14.01,2013-02-27 01:38:00,
2013-02-26 17:43:00,59.7,47.1,30.02,NW,304,4.0,6.0,63,0.00,,---,0.00,VWS V14.01,2013-02-27 01:43:00,
2013-02-26 17:48:00,59.2,46.6,30.02,NW,322,1.0,6.0,63,0.00,,---,0.00,VWS V14.01,2013-02-27 01:48:00,
2013-02-26 17:53:00,59.1,46.5,30.02,NW,323,0.0,6.0,63,0.00,,---,0.00,VWS V14.01,2013-02-27 01:53:00,
2013-02-26 17:58:00,59.1,46.5,30.02,NW,323,0.0,6.0,63,0.00,,---,0.00,VWS V14.01,2013-02-27 01:58:00,
2013-02-26 18:03:00,58.5,47.2,30.03,WNW,287,0.0,1.0,66,0.00,,---,0.00,VWS V14.01,2013-02-27 02:03:00,
2013-02-26 18:08:00,58.1,47.6,30.03,SW,233,0.0,1.0,68,0.00,,---,0.00,VWS V14.01,2013-02-27 02:08:00,
2013-02-26 18:14:00,57.1,47.4,30.03,SW,233,1.0,1.0,70,0.00,,---,0.00,VWS V14.01,2013-02-27 02:14:00,
2013-02-26 18:19:00,56.3,47.4,30.03,SW,233,0.0,1.0,72,0.00,,---,0.00,VWS V14.01,2013-02-27 02:19:00,
2013-02-26 18:24:00,55.7,47.9,30.03,SW,233,0.0,1.0,75,0.00,,---,0.00,VWS V14.01,2013-02-27 02:24:00,
2013-02-26 18:29:00,55.4,48.0,30.03,SW,233,0.0,1.0,76,0.00,,---,0.00,VWS V14.01,2013-02-27 02:29:00,
2013-02-26 18:34:00,55.3,47.9,30.04,SW,233,0.0,1.0,76,0.00,,---,0.00,VWS V14.01,2013-02-27 02:34:00,
2013-02-26 18:39:00,55.1,47.7,30.04,SW,233,0.0,1.0,76,0.00,,---,0.00,VWS V14.01,2013-02-27 02:39:00,
2013-02-26 18:44:00,54.7,47.6,30.05,SW,233,0.0,1.0,77,0.00,,---,0.00,VWS V14.01,2013-02-27 02:44:00,
2013-02-26 18:49:00,54.4,47.7,30.05,SW,233,0.0,1.0,78,0.00,,---,0.00,VWS V14.01,2013-02-27 02:49:00,
2013-02-26 18:54:00,54.0,47.3,30.05,SW,233,0.0,1.0,78,0.00,,---,0.00,VWS V14.01,2013-02-27 02:54:00,
2013-02-26 18:59:00,53.8,47.5,30.05,SW,233,0.0,1.0,79,0.00,,---,0.00,VWS V14.01,2013-02-27 02:59:00,
2013-02-26 19:04:00,53.8,47.1,30.05,SW,233,0.0,1.0,78,0.00,,---,0.00,VWS V14.01,2013-02-27 03:04:00,
2013-02-26 19:09:00,53.7,47.0,30.05,SW,235,0.0,1.0,78,0.00,,---,0.00,VWS V14.01,2013-02-27 03:09:00,
2013-02-26 19:14:00,53.4,47.1,30.06,SW,235,1.0,1.0,79,0.00,,---,0.00,VWS V14.01,2013-02-27 03:14:00,
2013-02-26 19:19:00,53.5,46.8,30.06,SW,235,0.0,1.0,78,0.00,,---,0.00,VWS V14.01,2013-02-27 03:19:00,
2013-02-26 19:24:00,53.6,46.9,30.06,NW,315,0.0,1.0,78,0.00,,---,0.00,VWS V14.01,2013-02-27 03:24:00,
2013-02-26 19:29:00,53.6,46.2,30.06,NW,315,0.0,1.0,76,0.00,,---,0.00,VWS V14.01,2013-02-27 03:29:00,
2013-02-26 19:34:00,53.7,46.3,30.07,NW,318,1.0,2.0,76,0.00,,---,0.00,VWS V14.01,2013-02-27 03:34:00,
2013-02-26 19:39:00,53.6,46.2,30.07,SW,235,0.0,2.0,76,0.00,,---,0.00,VWS V14.01,2013-02-27 03:39:00,
2013-02-26 19:44:00,53.0,46.0,30.07,SW,235,0.0,2.0,77,0.00,,---,0.00,VWS V14.01,2013-02-27 03:44:00,
2013-02-26 19:49:00,52.7,46.0,30.08,SW,235,0.0,2.0,78,0.00,,---,0.00,VWS V14.01,2013-02-27 03:49:00,
2013-02-26 19:54:00,52.4,45.8,30.07,SW,235,0.0,2.0,78,0.00,,---,0.00,VWS V14.01,2013-02-27 03:54:00,
2013-02-26 19:59:00,51.9,45.6,30.08,SW,235,0.0,2.0,79,0.00,,---,0.00,VWS V14.01,2013-02-27 03:59:00,
2013-02-26 20:04:00,51.5,45.5,30.08,SW,234,0.0,0.0,80,0.00,,---,0.00,VWS V14.01,2013-02-27 04:04:00,
2013-02-26 20:09:00,51.3,45.3,30.08,SW,235,0.0,1.0,80,0.00,,---,0.00,VWS V14.01,2013-02-27 04:09:00,
2013-02-26 20:14:00,51.1,45.5,30.08,SW,235,0.0,1.0,81,0.00,,---,0.00,VWS V14.01,2013-02-27 04:14:00,
2013-02-26 20:19:00,51.0,45.7,30.08,SW,235,0.0,1.0,82,0.00,,---,0.00,VWS V14.01,2013-02-27 04:19:00,
2013-02-26 20:24:00,51.3,45.7,30.08,SW,235,1.0,1.0,81,0.00,,---,0.00,VWS V14.01,2013-02-27 04:24:00,
2013-02-26 20:29:00,52.1,45.5,30.09,WSW,238,0.0,1.0,78,0.00,,---,0.00,VWS V14.01,2013-02-27 04:29:00,
2013-02-26 20:34:00,52.5,45.2,30.09,WSW,238,0.0,1.0,76,0.00,,---,0.00,VWS V14.01,2013-02-27 04:34:00,
2013-02-26 20:39:00,52.1,44.8,30.09,WSW,238,0.0,1.0,76,0.00,,---,0.00,VWS V14.01,2013-02-27 04:39:00,
2013-02-26 20:43:00,51.5,44.9,30.09,WSW,238,0.0,1.0,78,0.00,,---,0.00,VWS V14.01,2013-02-27 04:43:00,
2013-02-26 20:48:00,51.0,44.7,30.09,WSW,238,0.0,1.0,79,0.00,,---,0.00,VWS V14.01,2013-02-27 04:48:00,
2013-02-26 20:53:00,50.7,44.8,30.10,WSW,238,0.0,1.0,80,0.00,,---,0.00,VWS V14.01,2013-02-27 04:53:00,
2013-02-26 20:58:00,51.2,45.2,30.10,NW,322,0.0,1.0,80,0.00,,---,0.00,VWS V14.01,2013-02-27 04:58:00,
2013-02-26 21:00:00,51.4,45.1,30.10,NW,322,0.0,1.0,79,0.00,,---,0.00,VWS V14.01,2013-02-27 05:00:00,
2013-02-26 21:05:00,51.8,45.2,30.10,NW,323,0.0,1.0,78,0.00,,---,0.00,VWS V14.01,2013-02-27 05:05:00,
2013-02-26 21:10:00,52.0,45.4,30.10,NW,323,0.0,1.0,78,0.00,,---,0.00,VWS V14.01,2013-02-27 05:10:00,
2013-02-26 21:15:00,51.8,44.5,30.11,NW,323,0.0,1.0,76,0.00,,---,0.00,VWS V14.01,2013-02-27 05:15:00,
2013-02-26 21:20:00,50.6,43.3,30.11,NW,323,0.0,1.0,76,0.00,,---,0.00,VWS V14.01,2013-02-27 05:20:00,
2013-02-26 21:25:00,49.9,44.0,30.11,NW,323,0.0,1.0,80,0.00,,---,0.00,VWS V14.01,2013-02-27 05:25:00,
2013-02-26 21:30:00,49.7,44.4,30.11,NW,323,0.0,1.0,82,0.00,,---,0.00,VWS V14.01,2013-02-27 05:30:00,
2013-02-26 21:35:00,49.7,44.4,30.11,NW,323,0.0,1.0,82,0.00,,---,0.00,VWS V14.01,2013-02-27 05:35:00,
2013-02-26 21:40:00,50.0,44.7,30.11,NW,323,0.0,1.0,82,0.00,,---,0.00,VWS V14.01,2013-02-27 05:40:00,
2013-02-26 21:45:00,49.9,44.3,30.11,NW,323,0.0,1.0,81,0.00,,---,0.00,VWS V14.01,2013-02-27 05:45:00,
2013-02-26 21:50:00,49.7,44.1,30.11,NW,323,0.0,1.0,81,0.00,,---,0.00,VWS V14.01,2013-02-27 05:50:00,
2013-02-26 21:55:00,49.3,44.0,30.11,NW,323,1.0,1.0,82,0.00,,---,0.00,VWS V14.01,2013-02-27 05:55:00,
2013-02-26 22:00:00,49.5,44.6,30.11,North,357,1.0,2.0,83,0.00,,---,0.00,VWS V14.01,2013-02-27 06:00:00,
2013-02-26 22:05:00,49.4,43.5,30.11,SW,220,0.0,1.0,80,0.00,,---,0.00,VWS V14.01,2013-02-27 06:05:00,
2013-02-26 22:10:00,48.6,43.7,30.11,NW,318,0.0,2.0,83,0.00,,---,0.00,VWS V14.01,2013-02-27 06:10:00,
2013-02-26 22:15:00,48.2,43.0,30.12,South,169,2.0,2.0,82,0.00,,---,0.00,VWS V14.01,2013-02-27 06:15:00,
2013-02-26 22:20:00,47.4,42.8,30.11,North,1,1.0,3.0,84,0.00,,---,0.00,VWS V14.01,2013-02-27 06:20:00,
2013-02-26 22:25:00,47.7,43.7,30.11,NNW,337,1.0,4.0,86,0.00,,---,0.00,VWS V14.01,2013-02-27 06:25:00,
2013-02-26 22:30:00,48.1,43.5,30.12,NNW,338,0.0,4.0,84,0.00,,---,0.00,VWS V14.01,2013-02-27 06:30:00,
2013-02-26 22:35:00,48.2,43.6,30.12,NNW,338,1.0,4.0,84,0.00,,---,0.00,VWS V14.01,2013-02-27 06:35:00,
2013-02-26 22:40:00,48.1,43.5,30.12,NNW,337,0.0,4.0,84,0.00,,---,0.00,VWS V14.01,2013-02-27 06:40:00,
2013-02-26 22:45:00,48.0,43.4,30.12,NNW,337,0.0,4.0,84,0.00,,---,0.00,VWS V14.01,2013-02-27 06:45:00,
2013-02-26 22:50:00,47.9,43.9,30.12,NNW,337,0.0,4.0,86,0.00,,---,0.00,VWS V14.01,2013-02-27 06:50:00,
2013-02-26 22:55:00,47.8,43.5,30.12,NNW,337,0.0,4.0,85,0.00,,---,0.00,VWS V14.01,2013-02-27 06:55:00,
2013-02-26 23:00:00,47.6,43.3,30.12,North,8,0.0,4.0,85,0.00,,---,0.00,VWS V14.01,2013-02-27 07:00:00,
2013-02-26 23:05:00,47.2,42.6,30.13,NE,44,0.0,1.0,84,0.00,,---,0.00,VWS V14.01,2013-02-27 07:05:00,
2013-02-26 23:10:00,47.0,42.7,30.13,NE,44,1.0,1.0,85,0.00,,---,0.00,VWS V14.01,2013-02-27 07:10:00,
2013-02-26 23:15:00,46.9,42.9,30.13,NW,320,0.0,2.0,86,0.00,,---,0.00,VWS V14.01,2013-02-27 07:15:00,
2013-02-26 23:20:00,46.8,43.1,30.13,NW,319,0.0,2.0,87,0.00,,---,0.00,VWS V14.01,2013-02-27 07:20:00,
2013-02-26 23:25:00,47.1,43.4,30.13,North,354,0.0,2.0,87,0.00,,---,0.00,VWS V14.01,2013-02-27 07:25:00,
2013-02-26 23:30:00,47.6,43.9,30.13,North,354,1.0,2.0,87,0.00,,---,0.00,VWS V14.01,2013-02-27 07:30:00,
2013-02-26 23:35:00,47.8,43.8,30.13,West,267,0.0,2.0,86,0.00,,---,0.00,VWS V14.01,2013-02-27 07:35:00,
2013-02-26 23:40:00,47.1,42.5,30.13,WSW,241,0.0,2.0,84,0.00,,---,0.00,VWS V14.01,2013-02-27 07:40:00,
2013-02-26 23:45:00,46.3,42.3,30.14,ENE,58,2.0,2.0,86,0.00,,---,0.00,VWS V14.01,2013-02-27 07:45:00,
2013-02-26 23:50:00,46.1,42.8,30.14,East,90,1.0,2.0,88,0.00,,---,0.00,VWS V14.01,2013-02-27 07:50:00,
2013-02-26 23:55:00,46.5,43.1,30.14,East,84,0.0,2.0,88,0.00,,---,0.00,VWS V14.01,2013-02-27 07:55:00,